TimeCST,TemperatureF,Dew PointF,Humidity,Sea Level PressureIn,VisibilityMPH,Wind Direction,Wind SpeedMPH,Gust SpeedMPH,PrecipitationIn,Events,Conditions,WindDirDegrees,DateUTC
12:54 AM,30.9,26.1,82,30.29,9.0,South,5.8,-,N/A,,Clear,180,2012-11-29 06:54:00
1:54 AM,30.0,25.0,82,30.29,9.0,South,4.6,-,N/A,,Clear,190,2012-11-29 07:54:00
2:54 AM,30.0,24.1,79,30.29,10.0,South,4.6,-,N/A,,Clear,180,2012-11-29 08:54:00
3:54 AM,30.0,24.1,79,30.27,9.0,South,4.6,-,N/A,,Clear,170,2012-11-29 09:54:00
4:54 AM,30.0,24.1,79,30.27,7.0,South,5.8,-,N/A,,Clear,170,2012-11-29 10:54:00
5:54 AM,30.2,24.8,80,30.24,8.0,South,8.1,-,N/A,,Clear,180,2012-11-29 11:54:00
6:54 AM,30.0,25.0,82,30.25,7.0,South,6.9,-,N/A,,Clear,180,2012-11-29 12:54:00
7:54 AM,30.9,26.1,82,30.25,6.0,South,8.1,-,N/A,,Haze,180,2012-11-29 13:54:00
8:54 AM,35.1,28.9,78,30.25,7.0,South,10.4,-,N/A,,Clear,180,2012-11-29 14:54:00
9:54 AM,39.2,30.2,70,30.22,10.0,South,10.4,-,N/A,,Clear,180,2012-11-29 15:54:00
10:54 AM,43.0,32.0,65,30.21,10.0,South,10.4,-,N/A,,Clear,180,2012-11-29 16:54:00
11:54 AM,46.9,34.0,61,30.17,10.0,South,9.2,-,N/A,,Clear,170,2012-11-29 17:54:00
12:54 PM,52.0,35.1,53,30.13,10.0,South,10.4,-,N/A,,Clear,180,2012-11-29 18:54:00
1:54 PM,52.0,35.1,53,30.10,10.0,South,11.5,-,N/A,,Clear,180,2012-11-29 19:54:00
2:54 PM,52.0,35.1,53,30.06,10.0,South,13.8,-,N/A,,Clear,170,2012-11-29 20:54:00
3:54 PM,51.1,35.1,54,30.06,10.0,South,10.4,-,N/A,,Clear,170,2012-11-29 21:54:00
4:54 PM,48.0,35.1,61,30.07,10.0,South,17.3,23.0,N/A,,Clear,180,2012-11-29 22:54:00
5:54 PM,46.0,35.1,66,30.09,10.0,South,9.2,-,N/A,,Clear,180,2012-11-29 23:54:00
6:54 PM,44.1,34.0,68,30.09,10.0,SSE,5.8,-,N/A,,Clear,150,2012-11-30 00:54:00
7:54 PM,44.1,33.1,65,30.10,10.0,SSE,3.5,-,N/A,,Clear,150,2012-11-30 01:54:00
8:54 PM,42.1,33.1,70,30.09,10.0,SSE,5.8,-,N/A,,Clear,150,2012-11-30 02:54:00
9:54 PM,42.1,32.0,67,30.08,10.0,South,5.8,-,N/A,,Clear,170,2012-11-30 03:54:00
10:54 PM,41.0,30.9,67,30.07,10.0,South,5.8,-,N/A,,Clear,170,2012-11-30 04:54:00
11:54 PM,41.0,30.9,67,30.08,10.0,South,5.8,-,N/A,,Mostly Cloudy,180,2012-11-30 05:54:00